Weather Roundup
Issued by NWS

Home | Current Version | Previous Version | Text Only | Print | Product List | Glossary On
Versions: 1 2 3 4 5 6 7 8 9 10 11 12 13 14 15 16 17 18 19 20 21 22 23 24 25 26 27 28 29 30 31 32 33 34 35 36 37 38 39 40 41 42 43 44 45 46 47 48 49 50
000
NZUS93 KARX 040759
HRRWXR

CURRENT HOURLY OBSERVATIONS ACROSS
MUCH OF THE UPPER MISSISSIPPI VALLEY
NATIONAL WEATHER SERVICE LA CROSSE WI
300 AM CDT SAT JUL 04 2015


...SOUTHEAST MINNESOTA...


CITY           SKY/WX    TMP DP  RH WIND       PRES   REMARKS
ROCHESTER      CLEAR     58  55  90 SW5       29.97R
ROCHESTER/MAYO FAIR      64  55  74 CALM      29.95S
WINONA         CLEAR     61  59  94 CALM      29.94S
AUSTIN         CLEAR     59  55  88 CALM      29.96S
ALBERT LEA     CLEAR     61  55  82 CALM      29.96S
DODGE CENTER   PTCLDY    61  55  82 SW6       29.96S
PRESTON        CLEAR     61  53  76 W6        29.97S
OWATONNA       CLEAR     63  55  77 CALM      29.95S
FARIBAULT      CLEAR     61  57  88 CALM      29.95S
$$

...ELSEWHERE IN MINNESOTA...


CITY           SKY/WX    TMP DP  RH WIND       PRES   REMARKS
MINNEAPOLIS    MOCLDY    69  60  73 SW3       29.93R
INTNL FALLS    CLEAR     49  48  97 CALM      29.94S
DULUTH         CLEAR     61  53  75 NE5       29.94R
RED WING       CLEAR     59  57  94 CALM      29.92S
REDWOOD FALLS  CLEAR     66  62  87 SW3       29.93S
MANKATO        CLEAR     63  57  82 S5        29.94S
WORTHINGTON    CLEAR     64  55  72 SW9       29.98S
FAIRMONT       PTCLDY    63  54  72 SW6       29.96R
$$

...SOUTHWEST WISCONSIN...


CITY           SKY/WX    TMP DP  RH WIND       PRES   REMARKS
LA CROSSE      MOCLDY    64  61  90 S7        29.94R
PRAIRIE DU CHI CLEAR     58  56  92 CALM      29.96R
BOSCOBEL       CLEAR     55  54  96 CALM      29.96S FOG
LONE ROCK      NOT AVBL
PLATTEVILLE    CLEAR     61  56  83 S3        29.97S
FORT MC COY    PTCLDY    54  53  96 CALM      29.95S
CAMP DOUGLAS   FOG       54  54 100 E1        29.93S VSB 3/4
VIROQUA        FAIR      61  60  97 SW5       29.96S
WIS DELLS      PTCLDY    60  56  87 CALM      29.95S
$$

...ELSEWHERE IN WISCONSIN...


CITY           SKY/WX    TMP DP  RH WIND       PRES   REMARKS
MILWAUKEE      PTCLDY    63  54  72 SW5       29.94S
MADISON        CLEAR     58  54  86 CALM      29.95S
GREEN BAY      CLEAR     60  57  89 S3        29.91R
EAU CLAIRE     CLEAR     63  56  78 SW3       29.91S
BLACK RVR FLS  PTSUNNY   60  60 100 CALM      29.93S
MEDFORD        CLEAR     56  56  99 CALM      29.94R FOG
WAUSAU         CLEAR     61  58  90 CALM      29.92R
WIS RAPIDS     PTCLDY    58  55  90 CALM      29.95R
MARSHFIELD     MOCLDY    60  55  83 SW3       29.94R
RICE LAKE      FOG       60  59  96 CALM      29.93S VSB<1/4
$$

...NORTHEAST IOWA...


CITY           SKY/WX    TMP DP  RH WIND       PRES   REMARKS
DECORAH          N/A    N/A N/A N/A MISG        N/A
MASON CITY     CLEAR     60  54  80 SW5       29.98S
CHARLES CITY   CLEAR     59  59 100 SW3       29.98R
OELWEIN          N/A     57  55  94 CALM      29.98S
$$

...ELSEWHERE IN IOWA...


CITY           SKY/WX    TMP DP  RH WIND       PRES   REMARKS
DES MOINES     PTCLDY    64  56  75 CALM      29.98S
IOWA CITY      CLEAR     59  56  89 CALM      29.99S
FORT DODGE     CLEAR     55  52  88 CALM      29.99R
$$

...NORTHERN ILLINOIS...


CITY           SKY/WX    TMP DP  RH WIND       PRES   REMARKS
CHICAGO-OHARE  CLEAR     61  55  81 CALM      29.95S
CHICAGO-MIDWAY MOCLDY    64  56  75 CALM      29.95S
MOLINE         CLEAR     59  56  89 CALM      29.97S FOG
ROCKFORD       CLEAR     60  57  89 CALM      29.97S
PEORIA         CLEAR     62  58  86 CALM      29.97S FOG
$$

NOTE: "FAIR" INDICATES FEW OR NO CLOUDS BELOW 12,000 FEET WITH NO
SIGNIFICANT WEATHER AND/OR OBSTRUCTIONS TO VISIBILITY. WIND
SPEEDS ARE IN MILES-PER-HOUR.



USA.gov is the U.S. government's official web portal to all federal, state and local government web resources and services.